STARLINK-35105, 65543

Orbit data source: Space-Track

STARLINK-35105, 65543 is a payload satellite owned by SpaceX/Seattle (US) in SSO that was launched on Sat, 06 Sep 2025 UTC via an FALCON 9 launch vehicle from the Air Force Eastern Test Range (AFETR). Payload-class satellites include a variety of spacecraft equipped with specific instruments for various scientific and technological missions. These include communications satellites like Starlink; space stations such as the ISS; scientific satellites like the Hubble; Earth observation satellites from companies like Planet Labs, Umbra, and HawkEye 360; GPS; miniature CubeSats for education and research; and military/defense satellites.

Loading next visibility...
Identifier
65543, 2025-200Z
Orbit
SSO
Country
Flag of USUS
Related business
Manufacturer
SpaceX/Seattle
Mission
Operational Commercial Communications
Bus & Motor
STARLINK V2MO, Unknown motor
Mass
575 kg wet, ~530 kg dry
Launch date (UTC)
2025-09-06 (9 months ago)
Launch vehicle
FALCON 9
Launch site
Air Force Eastern Test Range (AFETR)
Object type
Payload
Rocket body
Debris
Shape & HBR
Box + 2 Pan, 17.7 m
Radar Cross Section
36.964 m², Large (>1 m²)

Expand to show TLE details & history
Last TLE update: 11 hours ago

TLE from 11 hours ago
0 STARLINK-35105
1 65543U 25200Z   26171.43819676  .00003039  00000-0  21443-3 0  9995
2 65543  97.3383 240.0197 0001735  88.6746 271.4681 15.05659416 44599
Epoch: 2026-06-20T10:31Z
TLE epoch observation values (Epoch: 2026-06-20T10:31:00.200Z)
Latitude
0.00007°
Longitude
173.61604°
Altitude
552.524 km
Speed
7.586 km/s
True Right ascension
16h 00m 04s
True Declination
0° 00' 00"
Sunlit
Object was in full shadow at epoch
Visualization orbit readout
Latitude
Unknown
Longitude
Unknown
Altitude
Unknown
Speed
Unknown
Apparent Right ascension
Unknown
Apparent Declination
Unknown
Sunlit
N/A
Visualization observer readout
Local Sidereal Time
08:33:07
Azimuth
Unknown
Elevation
Unknown
Doppler factor
Unknown
Orbital elements
Apogee altitude
547.666 km
Perigee altitude
545.263 km
Semi-major axis
6,924.601 km
Eccentricity
0.00017
Inclination
97.3383°
RAAN
240.0197°
Arg. of periapsis
88.6746°
True anomaly
271.44822°
Mean anomaly
271.4681°
Eccentric anomaly
271.45816°
Mean motion
3.76661 °/min
Orbital period
95.58 mins
BSTAR
0.00021443
Loading maneuver chart data...
Computing Atmospheric mass density...
Loading historical data...
Loading historical data...
Loading historical data...
Loading historical data...
Loading historical data...
Loading historical data...
Loading historical data...

Documentation

Showing up to 5 results
|